Location: Chervonnoye
(48.6000°N, 34.4000°E)
Time: 06:28:56
(UTC+00:00)

Nadezhda 1 Rocket - Pass Details

Date: 21 April 2021
Orbit: 940 x 1006 km, 83.0° (Epoch: 13 May)

Event Time Altitude Azimuth Distance (km) Brightness Sun altitude
Exits shadow 20:11:08 13° 82° (E) 2,564 6.0 -26.1°
Maximum altitude 20:11:49 13° 75° (ENE) 2,550 6.1 -26.1°
Drops below altitude 10° 20:14:35 10° 49° (NE) 2,782 6.6 -26.3°
Sets 20:18:38 0° 24° (NNE) 3,729 7.6 -26.6°
